Regional Weather Roundup
Issued by NWS

Home | Current Version | Previous Version | Graphics & Text | Print | Product List | Glossary On
Versions: 1 2 3 4 5 6 7 8 9 10 11 12 13 14 15 16 17 18 19 20 21 22 23 24 25 26 27 28 29 30 31 32 33 34 35 36 37 38 39 40 41 42 43 44 45 46 47 48 49 50
988
ASUS43 KMKX 240200
RWRWI

WISCONSIN REGIONAL WEATHER ROUNDUP
NATIONAL WEATHER SERVICE MILWAUKEE/SULLIVAN WI
900 PM CDT SUN APR 23 2017

NOTE: "FAIR" INDICATES FEW OR NO CLOUDS BELOW 12,000 FEET WITH NO
SIGNIFICANT WEATHER AND/OR OBSTRUCTIONS TO VISIBILITY.

WIZ001-002-006>008-014>016-023>028-240300-
NORTHWEST WISCONSIN

CITY           SKY/WX    TMP DP  RH WIND       PRES   REMARKS
SUPERIOR ARPT  PTCLDY    34  28  77 E15G22    30.09F WCI  24
ASHLAND        CLOUDY    35  27  72 NE10      30.12S WCI  27
HAYWARD        PTCLDY    36  28  73 NE10      30.04R WCI  28
SIREN          PTCLDY    39  31  73 NE12G22   30.00R WCI  32
CUMBERLAND     NOT AVBL
RICE LAKE      PTCLDY    48  39  71 NE10      29.98R
CHETEK         PTCLDY    50  39  66 NE10G17   29.95S
LADYSMITH      CLOUDY    46  37  68 NE12G18   30.01R
EAU CLAIRE     NOT AVBL
MENOMONIE      PTCLDY    58  40  51 E6        29.91S
NEW RICHMOND   PTCLDY    53  41  62 NE12G18   29.91R
OSCEOLA        MOCLDY    53  39  61 NE10      29.95R
$$

WIZ003>005-009-010-017-018-240300-
NORTH CENTRAL WISCONSIN

CITY           SKY/WX    TMP DP  RH WIND       PRES   REMARKS
MANITOWISH WTR CLOUDY    35  29  78 NE9       30.07R WCI  28
ARBOR VITAE    PTCLDY    42  35  76 E5        30.05S
WOODRUFF       PTCLDY    42  35  76 E5        30.05S
RHINELANDER    CLOUDY    41  32  70 E14G21    30.06R
EAGLE RIVER    CLOUDY    37  29  72 E9        30.07S WCI  31
LAND O LAKES   CLOUDY    35  26  70 NE5       30.11R WCI  31
PHILLIPS       PTCLDY    41  35  78 NE10      30.03R
TOMAHAWK       CLOUDY    43  34  68 NE6       30.04R
MEDFORD        PTCLDY    52  42  67 E10G20    29.98S
MERRILL        PTCLDY    48  38  70 SE9       30.04R
$$

WIZ029-030-035-036-043>047-240300-
CENTRAL WISCONSIN

CITY           SKY/WX    TMP DP  RH WIND       PRES   REMARKS
WAUSAU         PTCLDY    46  37  71 E14       30.03R
MOSINEE        PTCLDY    46  37  71 SE13G18   30.04R
MARSHFIELD     CLOUDY    50  41  71 E13       30.00R
STEVENS POINT  PTCLDY    45  37  73 E12       30.04R
WAUPACA        CLOUDY    46  38  72 E10       30.08R
WAUTOMA        CLOUDY    46  39  76 E12G18    30.06R
WISC RAPIDS    CLOUDY    50  42  74 SE12G20   30.03R
CAMP DOUGLAS   NOT AVBL
$$

WIZ011>013-019>022-031-037>040-048>050-240300-
NORTHEAST WISCONSIN

CITY           SKY/WX    TMP DP  RH WIND       PRES   REMARKS
ANTIGO         MOCLDY    42  34  73 SE13G22   30.07R
SHAWANO        CLOUDY    42  31  66 E12       30.11S
OCONTO         CLOUDY    39  29  66 E8        30.13R WCI  34
STURGEON BAY   PTCLDY    38  27  64 NE8       30.14R WCI  32
GREEN BAY      PTCLDY    41  33  73 E12       30.11S
MANITOWOC      NOT AVBL
APPLETON       PTCLDY    43  30  61 E10       30.07R
CLINTONVILLE   CLOUDY    41  32  70 E10G18    30.09S
OSHKOSH        CLOUDY    42  34  73 E10       30.08R
$$

WIZ032>034-041-042-053>061-240300-
SOUTHWEST WISCONSIN

CITY           SKY/WX    TMP DP  RH WIND       PRES   REMARKS
LA CROSSE      CLOUDY    65  37  35 SE3       29.94R
SPARTA         CLOUDY    55  38  51 E5        29.97S
VIROQUA        CLOUDY    60  32  34 S6        29.97S
BOSCOBEL       MOCLDY    57  38  48 W3        29.97S
PRAIRIE DU CHI CLOUDY    63  32  31 E3        29.96S
PLATTEVILLE    PTCLDY    62  37  39 S9        30.00R
$$

WIZ056-057-062-063-064-067-068-240300-
SOUTH CENTRAL WISCONSIN

CITY           SKY/WX    TMP DP  RH WIND       PRES   REMARKS
REEDSBURG      CLOUDY    56  45  66 E9G16     29.99R
BARABOO/DELLS  CLOUDY    56  42  61 E13       30.00R
LONE ROCK      NOT AVBL
MINERAL POINT  PTCLDY    63  32  31 SE6       29.99F
MADISON        PTCLDY    53  41  63 E8        30.02R
MIDDLETON      CLEAR     62  32  32 SW6       30.00S
WATERTOWN      PTCLDY    44  37  79 E8        30.05R
MONROE         CLEAR     63  32  31 S7        30.01R
JANESVILLE     MOCLDY    54  41  62 E14       30.02R
$$

WIZ051-052-058>065-066-070>072-240300-
SOUTHEAST WISCONSIN

CITY           SKY/WX    TMP DP  RH WIND       PRES   REMARKS
MILWAUKEE      MOCLDY    39  34  82 NE8       30.09R WCI  33
WAUKESHA       CLEAR     37  34  87 E9        30.08S WCI  31
MILWAUKEE/TIMM CLEAR     39  32  75 NE8       30.10R WCI  34
RACINE         PTCLDY    39  35  86 N7        30.10R WCI  34
KENOSHA        MOCLDY    40  36  86 NE7       30.08R
FOND DU LAC    PTCLDY    41  32  70 E8        30.08R
SHEBOYGAN      PTCLDY    38  31  76 NE15      30.10R WCI  29
WEST BEND      PTCLDY    37  32  81 E8G16     30.08S WCI  31
JUNEAU         PTCLDY    43  37  78 E7        30.07R
$$

LSZ147-162-240300-
LAKE SUPERIOR

STATION/POSITION TIME  TEMP    WIND        PRES    WAVE
                       AIR SEA DIR/SP/G            HT/PER
                 (UTC) (F)     (DEG/KT/KT) (MB)    (FT/S)
DEVILS ISLAND    0100   34      60/ 18/ 20 1021.7F
SAXON HARBOR     0140   37      70/  8/ 13 1019.6R
$$

LMZ867-665-643>646-240300-
LAKE MICHIGAN

STATION/POSITION TIME  TEMP    WIND        PRES    WAVE
                       AIR SEA DIR/SP/G            HT/PER
                 (UTC) (F)     (DEG/KT/KT) (MB)    (FT/S)
CHAMBERS ISLAND  0130   38      30/ 13/ 15 1020.3R
N MID LAKE BUOY  0050   37 37   50/ 10/ 12 1022.0F   1/ 3
NORTHPORT PIER   0140   38      30/  8/ 10 1021.0R
SISTER BAY       2351   40     110/  7/ 10   N/A
KEWAUNEE LAKESHO 0130   39      40/ 13/ 20 1019.4S
SHEBOYGAN LAKESH 0100   38      20/ 18/ 21 1019.3F
PORT WASHINGTON  0130   40      20/ 10/ 13 1020.0S
MILWAUKEE LAKESH 0130   39      20/ 11/ 12   N/A
S MID LAKE BUOY  0050   41 42   20/  8/ 10 1018.8R   1
KENOSHA   LAKESH 0100   41      20/ 14/ 17 1018.3
$$

TC  - TEMPERATURE IN CELSIUS
VSB - VISIBILITY IN STATUTE MILES
WCI - WIND CHILL INDEX
HX  - HEAT INDEX





USA.gov is the U.S. government's official web portal to all federal, state and local government web resources and services.